Location: Staunton
(38.1490°N, 79.0720°W)
Time: 02:15:00
(UTC-04:00)

ISS - Pass Details

Date: 21 May 2018
Orbit: 402 x 407 km, 51.6° (Epoch: 24 May)

Event Time Altitude Azimuth Distance (km) Brightness Sun altitude
Rises 22:24:21 0° 250° (WSW) 2,310 0.3 -19.4°
Reaches altitude 10° 22:26:32 10° 261° (W) 1,452 -0.6 -19.7°
Maximum altitude 22:29:32 33° 328° (NNW) 697 -2.0 -20.0°
Drops below altitude 10° 22:32:32 10° 35° (NE) 1,456 -0.8 -20.4°
Sets 22:34:45 0° 45° (NE) 2,317 0.1 -20.7°
